False Pass, AK

3:22 AM HDT on April 28, 2017 (GMT -0900)
False Pass

Weather History for PAKF - October, 2012

Change the Weather History Date:

Tuesday, October 9, 2012

  Actual Average (PACD) Record (PACD)
Temperature  
Mean Temperature 47 °F -  
Max Temperature 48 °F 46 °F 60 °F (2012)
Min Temperature 46 °F 36 °F 27 °F (1982)
Degree Days  
Heating Degree Days 18    
Moisture  
Dew Point 46 °F    
Average Humidity 92    
Maximum Humidity 100    
Minimum Humidity 86    
Precipitation  
Precipitation 0.01 in - - ()
Sea Level Pressure  
Sea Level Pressure 30.09 in    
Wind  
Wind Speed - (North)    
Max Wind Speed -    
Max Gust Speed -    
Visibility 8 miles    
Events Rain    
Averages and records for this station are not official NWS values.
T = Trace of Precipitation, MM = Missing Value Source: NWS Daily Summary

Daily Weather History Graph

Daily Weather History Graph

Search for Another Location

Airport or City:

Trip Planner

Search our weather history database for the weather conditions in past years. The results will help you decide how hot, cold, wet, or windy it might be!

Date:

Astronomy

Oct. 09, 2012 Rise Set
Actual Time 8:12 AM HDT 7:07 PM HDT
Civil Twilight 7:36 AM HDT 7:43 PM HDT
Nautical Twilight 6:54 AM HDT 8:25 PM HDT
Astronomical Twilight 6:12 AM HDT 9:07 PM HDT
Moon 1:05 AM HDT (10/9) 4:31 PM HDT (10/9)
Length of Visible Light 12h 07m
Length of Day
10h 54m
Waning Crescent, 35% of the Moon is Illuminated
Oct 9
Waning Crescent
Oct 15
New
Oct 21
First Quarter
Oct 29
Full
Nov 6
Last Quarter

Hourly Weather History & Observations

Time (HDT) Temp. Dew Point Humidity Pressure Visibility Wind Dir Wind Speed Gust Speed Precip Events Conditions
12:01 AM 48.9 °F 48.0 °F 97% 30.29 in 8.0 mi North - - N/A   Overcast
1:01 AM 48.9 °F 48.0 °F 97% 30.28 in 9.0 mi North - - N/A   Overcast
1:42 AM 48.2 °F 46.4 °F 93% 30.00 in 5.0 mi North - - N/A   Overcast
1:58 AM 48.2 °F 46.4 °F 93% 30.00 in 2.0 mi North - - N/A   Overcast
2:01 AM 48.2 °F 46.4 °F 93% 29.99 in 1.8 mi North - - N/A   Overcast
2:52 AM 48.2 °F 46.4 °F 93% 29.99 in 2.5 mi North - - N/A   Overcast
3:01 AM 48.0 °F 46.9 °F 96% 30.28 in 4.0 mi North - - N/A   Overcast
4:01 AM 46.9 °F 46.9 °F 100% 30.28 in 5.0 mi North - - N/A   Overcast
5:01 AM 46.9 °F 46.0 °F 97% 30.27 in 4.0 mi North - - N/A   Overcast
6:01 AM 46.4 °F 46.4 °F 100% 29.98 in 4.0 mi North - - 0.00 in Rain Light Rain
7:01 AM 46.9 °F 46.0 °F 97% 30.26 in 6.0 mi North - - 0.01 in   Overcast
8:01 AM 46.9 °F 46.0 °F 97% 30.24 in 10.0 mi North - - 0.00 in Rain Light Rain
9:01 AM 46.9 °F 46.0 °F 97% 30.24 in 10.0 mi North - - 0.00 in   Overcast
9:38 AM 48.2 °F 46.4 °F 93% 29.95 in 10.0 mi North - - N/A   Overcast
9:45 AM 48.2 °F 44.6 °F 87% 29.95 in 10.0 mi North - - N/A   Overcast
10:01 AM 48.0 °F 46.0 °F 93% 30.23 in 10.0 mi North - - N/A   Overcast
10:19 AM 48.2 °F 46.4 °F 93% 29.94 in 6.0 mi North - - N/A   Mist
10:50 AM 48.2 °F 44.6 °F 87% 29.94 in 10.0 mi North - - N/A   Overcast
11:01 AM 48.0 °F 45.0 °F 89% 30.22 in 10.0 mi North - - N/A   Overcast
11:46 AM 48.2 °F 46.4 °F 93% 29.92 in 9.0 mi North - - N/A   Overcast
12:01 PM 48.0 °F 46.0 °F 93% 30.20 in 9.0 mi North - - N/A   Overcast
12:34 PM 48.2 °F 46.4 °F 93% 29.91 in 9.0 mi North - - N/A   Overcast
1:01 PM 48.9 °F 46.0 °F 90% 30.19 in 9.0 mi North - - N/A   Overcast
1:37 PM 48.2 °F 46.4 °F 93% 29.90 in 10.0 mi North - - N/A   Overcast
2:01 PM 48.9 °F 46.0 °F 90% 30.17 in 10.0 mi North - - N/A   Overcast
3:01 PM 48.9 °F 46.0 °F 90% 30.17 in 10.0 mi North - - N/A   Overcast
4:01 PM 48.0 °F 45.0 °F 89% 30.16 in 10.0 mi North - - N/A   Overcast
5:01 PM 48.0 °F 45.0 °F 89% 30.14 in 10.0 mi North - - N/A   Overcast
6:01 PM 48.9 °F 45.0 °F 86% 30.12 in 10.0 mi North - - N/A   Overcast
6:19 PM 48.2 °F 44.6 °F 87% 29.84 in 10.0 mi North - - N/A   Unknown
6:51 PM 48.2 °F 46.4 °F 93% 29.83 in 10.0 mi North - - N/A   Overcast
7:01 PM 48.9 °F 45.0 °F 86% 30.11 in 10.0 mi North - - N/A   Overcast
7:10 PM 48.2 °F 44.6 °F 87% 29.82 in 10.0 mi North - - N/A   Overcast
8:01 PM 48.9 °F 46.0 °F 90% 30.09 in 10.0 mi North - - 0.00 in Rain Light Rain
9:01 PM 48.9 °F 46.0 °F 90% 30.09 in 7.0 mi North - - 0.00 in   Overcast
10:01 PM 48.9 °F 46.0 °F 90% 30.08 in 7.0 mi North - - 0.00 in Rain Light Rain
11:01 PM 48.9 °F 46.0 °F 90% 30.08 in 10.0 mi North - - 0.00 in Rain Light Rain